DW4391 Weather Reports


Display with metric or nautical units.
time (UTC)temp
F
wind
direction
speed
MPH
gust
MPH
rain 1hr
in
rain 24hr
in
rain mn
in
humidity
%
barometer
mb
20190422134655 56 321 0.0 0.0 0.00 0.00 0.00 75 1021.5
20190422133207 54 321 0.0 0.0 0.00 0.00 0.00 78 1021.5
20190422131707 52 321 0.0 0.0 0.00 0.00 0.00 80 1021.4
20190422130052 50 321 0.0 0.0 0.00 0.00 0.00 82 1021.4
20190422124615 49 321 0.0 0.0 0.00 0.00 0.00 82 1021.3
20190422123058 0 0.0 0.0 0.00 0.00 0.00 1021.3
20190422121548 0 0.0 0.0 0.00 0.00 0.00 1021.3
20190422120157 0 0.0 0.0 0.00 0.00 0.00 1021.1
20190422114657 0 0.0 0.0 0.00 0.00 0.00 1020.9
20190422113044 0 0.0 0.0 0.00 0.00 0.00 1020.8
20190422111533 0 0.0 0.0 0.00 0.00 0.00 1020.6
20190422110018 0 0.0 0.0 0.00 0.00 0.00 1020.3
20190422104544 0 0.0 0.0 0.00 0.00 0.00 1020.1
20190422103322 0 0.0 0.0 0.00 0.00 0.00 1020.1
20190422101704 0 0.0 0.0 0.00 0.00 0.00 1020.0
20190422100151 0 0.0 0.0 0.00 0.00 0.00 1019.9
20190422094707 46 321 0.0 0.0 0.00 0.00 0.00 82 1019.8
20190422093100 47 320 0.0 0.0 0.00 0.00 0.00 82 1019.8
20190422091638 46 321 0.0 0.0 0.00 0.00 0.00 82 1019.9
20190422090145 46 335 0.0 0.0 0.00 0.00 0.00 80 1019.8
20190422084636 46 335 0.0 0.0 0.00 0.00 0.00 77 1019.7
20190422083142 46 336 0.0 0.0 0.00 0.00 0.00 72 1019.6
20190422081635 45 352 0.0 0.0 0.00 0.00 0.00 64 1019.5
20190422080108 46 352 0.0 0.0 0.00 0.00 0.00 67 1019.4
20190422074606 46 352 0.0 0.0 0.00 0.00 0.00 70 1019.3
20190422073119 46 352 0.0 0.0 0.00 0.00 0.00 73 1019.3
20190422071558 47 352 0.0 0.0 0.00 0.00 0.00 78 1019.3
20190422070101 47 352 0.0 0.0 0.00 0.00 0.00 78 1019.3
20190422064602 48 352 0.0 0.0 0.00 0.00 0.00 79 1019.5
20190422063101 48 352 0.0 0.0 0.00 0.00 0.00 80 1019.5
20190422061547 49 351 0.0 0.0 0.00 0.00 0.00 81 1019.6
20190422060049 48 352 0.0 0.0 0.00 0.00 0.00 82 1019.6
20190422054615 48 352 0.0 0.0 0.00 0.00 0.00 81 1019.6
20190422053038 49 352 0.0 0.0 0.00 0.00 0.00 81 1019.5
20190422051604 49 352 0.0 0.0 0.00 0.00 0.00 81 1019.6
20190422050043 49 352 0.0 0.0 0.00 0.00 0.00 81 1019.6
20190422044526 49 352 0.0 0.0 0.00 0.00 0.00 81 1019.6
20190422043051 50 352 0.0 0.0 0.00 0.00 0.00 81 1019.6
20190422041522 51 352 0.0 0.0 0.00 0.00 0.00 80 1019.6
20190422040027 51 352 0.0 0.0 0.00 0.00 0.00 79 1019.6
20190422034508 52 352 0.0 0.0 0.00 0.00 0.00 78 1019.6
20190422033142 52 352 0.0 0.0 0.00 0.00 0.00 76 1019.6
20190422031655 53 352 0.0 0.0 0.00 0.00 0.00 76 1019.5
20190422030227 53 352 0.0 0.0 0.00 0.00 0.00 75 1019.5
20190422024631 54 352 0.0 0.0 0.00 0.00 0.00 74 1019.5
20190422023132 54 351 0.0 0.0 0.00 0.00 0.00 74 1019.4
20190422021610 55 352 0.0 0.0 0.00 0.00 0.00 70 1019.4
20190422020111 55 353 0.0 0.0 0.00 0.00 0.00 67 1019.3
20190422014606 56 352 0.0 0.0 0.00 0.00 0.00 68 1019.1
20190422013045 56 352 0.0 0.0 0.00 0.00 0.00 66 1019.0
20190422011553 59 269 0.0 0.0 0.00 0.00 0.00 65 1018.8
20190422010024 60 269 0.0 0.0 0.00 0.00 0.00 55 1018.7
20190422004532 61 269 0.0 0.0 0.00 0.00 0.00 50 1018.5
20190422003039 62 269 0.0 0.0 0.00 0.00 0.00 47 1018.2
20190422001509 63 269 0.0 0.0 0.00 0.00 0.00 42 1018.1
20190422000147 64 268 0.0 0.0 0.00 0.00 0.00 43 1017.9
20190421234700 65 269 0.0 0.0 0.00 0.00 0.00 45 1017.8
20190421233136 65 268 0.0 0.0 0.00 0.00 0.00 43 1017.7
20190421231710 66 269 0.0 1.0 0.00 0.00 0.00 43 1017.7
20190421230117 67 269 0.0 1.0 0.00 0.00 0.00 40 1017.6
20190421224645 68 302 0.0 1.0 0.00 0.00 0.00 33 1017.5
20190421223148 68 267 0.0 3.0 0.00 0.00 0.00 34 1017.5
20190421221810 68 33 1.0 2.0 0.00 0.00 0.00 31 1017.4
20190421220146 68 4 0.0 3.0 0.00 0.00 0.00 33 1017.4
20190421214619 68 63 0.0 5.0 0.00 0.00 0.00 30 1017.2
20190421213058 68 11 1.0 4.0 0.00 0.00 0.00 29 1017.3
20190421211603 68 356 1.0 4.0 0.00 0.00 0.00 28 1017.2
20190421210048 68 350 1.0 4.0 0.00 0.00 0.00 28 1017.2
20190421204602 68 288 1.0 4.0 0.00 0.00 0.00 31 1017.2
20190421203047 69 297 1.0 4.0 0.00 0.00 0.00 31 1017.2
20190421201544 69 284 2.0 7.0 0.00 0.00 0.00 30 1017.4
20190421200037 68 35 1.0 5.0 0.00 0.00 0.00 32 1017.6
20190421194523 68 51 1.0 5.0 0.00 0.00 0.00 32 1017.8
20190421193022 68 318 0.0 5.0 0.00 0.00 0.00 38 1017.9
20190421191657 68 273 1.0 3.0 0.00 0.00 0.00 34 1018.1
20190421190129 67 3 2.0 5.0 0.00 0.00 0.00 35 1018.2
20190421184706 68 285 1.0 5.0 0.00 0.01 0.00 38 1018.4
20190421183209 68 12 1.0 3.0 0.00 0.01 0.00 39 1018.5
20190421181656 67 1 1.0 5.0 0.00 0.01 0.00 36 1018.5
20190421180201 67 301 1.0 4.0 0.00 0.01 0.00 36 1018.6
20190421174546 66 283 2.0 4.0 0.00 0.04 0.00 36 1018.7
20190421173045 65 306 3.0 6.0 0.00 0.04 0.00 35 1018.8
20190421171603 65 330 2.0 5.0 0.00 0.04 0.00 38 1018.9
20190421170049 64 285 1.0 4.0 0.00 0.04 0.00 42 1018.9
20190421164520 63 53 1.0 4.0 0.00 0.04 0.00 46 1019.0
20190421163010 61 330 2.0 4.0 0.00 0.04 0.00 44 1019.1
20190421161514 61 22 2.0 4.0 0.00 0.04 0.00 47 1019.2
20190421160220 60 1 1.0 4.0 0.00 0.04 0.00 50 1019.3
20190421154754 59 283 1.0 3.0 0.00 0.04 0.00 53 1019.2
20190421153134 57 297 0.0 3.0 0.00 0.04 0.00 56 1019.1
20190421151614 56 283 1.0 3.0 0.00 0.04 0.00 60 1019.2
20190421150112 55 294 0.0 2.0 0.00 0.04 0.00 64 1019.1
20190421144556 54 271 0.0 1.0 0.00 0.05 0.00 72 1018.9
20190421143103 52 310 0.0 3.0 0.00 0.05 0.00 72 1018.7
20190421141547 51 9 1.0 2.0 0.00 0.05 0.00 76 1018.6
20190421140046 50 22 1.0 2.0 0.00 0.05 0.00 80 1018.5